Starlink 3551

operational
NORAD ID: 51887 Int'l Des: 2022-022 Owner: SPXS Country: US Constellation: starlink
LEOCIRCULAR

Über Starlink 3551

Beschreibung wird geladen...

Live-Position

3D-Globus wird geladen...

Nächste Überflüge

Höhenverlauf

Altitude vs Time

uPlot chart will show altitude changes over time

Zweizeiliger Elementsatz

1 51887U 22022AM 25307.50527405 .00001471 00000-0 11049-3 0 9993
2 51887 53.2163 205.5844 0001583 94.8368 265.2805 15.08840279204192
Epoch: 3. Nov. 2025 • Age: 14 hours

Aktueller Status

Höhe 539.8 km
Geschwindigkeit 7.60 km/s
Subsatellitenpunkt 18.02°N, 135.28°E
Startdatum 3. März 2022
Alter 3.6 years
Typ internet

Technische Details

Klassifizierung Payload
Masse 297.00 kg
Trockenmasse 275.00 kg
Gesamtmasse 297.00 kg
Länge 0.20 m
Durchmesser 2.80 m
Spannweite 9.00 m
Form Box + pan
Hersteller SPXS
Bus-Typ Starlink
Phasenstatus In Orbit
Besitzer/Staat SPXS/US

Große Konstellationen

Loading constellations...